Iron Mountain, MI

8:04 AM CDT on September 19, 2017 (GMT -0500)
Ford

Weather History for KIMT - February, 2012

Change the Weather History Date:

Friday, February 10, 2012

  Actual Average Record
Temperature  
Mean Temperature 14 °F -  
Max Temperature 27 °F 26 °F 44 °F (2009)
Min Temperature 1 °F 3 °F -23 °F (1962)
Degree Days  
Heating Degree Days 51    
Moisture  
Dew Point 6 °F    
Average Humidity 73    
Maximum Humidity 93    
Minimum Humidity 56    
Precipitation  
Precipitation 0.00 in - - ()
Sea Level Pressure  
Sea Level Pressure 30.06 in    
Wind  
Wind Speed 13 mph (North)    
Max Wind Speed 23 mph    
Max Gust Speed 34 mph    
Visibility 4 miles    
Events Snow    
Averages and records for this station are not official NWS values.
T = Trace of Precipitation, MM = Missing Value Source: NWS Daily Summary

Daily Weather History Graph

Daily Weather History Graph

Search for Another Location

Airport or City:

Trip Planner

Search our weather history database for the weather conditions in past years. The results will help you decide how hot, cold, wet, or windy it might be!

Date:

Astronomy

Feb. 10, 2012 Rise Set
Actual Time 7:03 AM CST 5:10 PM CST
Civil Twilight 6:31 AM CST 5:42 PM CST
Nautical Twilight 5:56 AM CST 6:17 PM CST
Astronomical Twilight 5:22 AM CST 6:51 PM CST
Moon 9:04 PM CST (2/10) 7:58 AM CST (2/10)
Length of Visible Light 11h 10m
Length of Day
10h 07m
Waning Gibbous, 90% of the Moon is Illuminated
Feb 10
Waning Gibbous
Feb 14
Last Quarter
Feb 21
New
Feb 29
First Quarter
Mar 8
Full

Hourly Weather History & Observations

Time (CST) Temp. Windchill Dew Point Humidity Pressure Visibility Wind Dir Wind Speed Gust Speed Precip Events Conditions
12:54 AM 27.0 °F 23.0 °F 17.1 °F 66% 29.88 in 10.0 mi WNW 3.5 mph - N/A   Overcast
1:54 AM 26.1 °F 19.4 °F 19.0 °F 75% 29.89 in 2.5 mi North 5.8 mph - 0.00 in Snow Light Snow
2:01 AM 26.6 °F 19.1 °F 19.4 °F 74% 29.85 in 1.8 mi North 6.9 mph - 0.00 in Snow Light Snow
2:22 AM 21.2 °F 8.3 °F 19.4 °F 93% 29.86 in 0.8 mi NNE 13.8 mph 21.9 mph 0.00 in Snow Light Snow
2:29 AM 21.2 °F 7.8 °F 17.6 °F 86% 29.87 in 1.0 mi NNE 15.0 mph 21.9 mph 0.00 in Snow Light Snow
2:54 AM 21.0 °F 8.6 °F 15.1 °F 78% 29.92 in 2.0 mi NNE 12.7 mph 20.7 mph 0.00 in Snow Light Snow
3:15 AM 19.4 °F 5.0 °F 15.8 °F 86% 29.88 in 1.2 mi NNE 16.1 mph 24.2 mph 0.00 in Snow Light Snow
3:50 AM 17.6 °F 5.0 °F 10.4 °F 73% 29.91 in 2.0 mi NNE 11.5 mph 28.8 mph 0.00 in Snow Light Snow
3:54 AM 18.0 °F 5.4 °F 12.0 °F 78% 29.96 in 2.0 mi NNE 11.5 mph 25.3 mph 0.00 in Snow Light Snow
4:16 AM 17.6 °F 3.2 °F 10.4 °F 73% 29.92 in 1.2 mi NNE 15.0 mph 29.9 mph 0.00 in Snow Light Snow
4:54 AM 15.1 °F -0.6 °F 10.0 °F 80% 30.01 in 1.2 mi North 16.1 mph 20.7 mph 0.00 in Snow Light Snow
5:15 AM 15.8 °F 0.9 °F 10.4 °F 79% 29.95 in 0.8 mi North 15.0 mph 24.2 mph 0.00 in Snow Light Snow
5:51 AM 14.0 °F -0.2 °F 10.4 °F 86% 29.97 in 1.0 mi North 12.7 mph - 0.00 in Snow Light Snow
5:54 AM 14.0 °F -2.5 °F 10.0 °F 84% 30.04 in 1.0 mi North 17.3 mph 21.9 mph 0.00 in Snow Light Snow
6:01 AM 14.0 °F -0.8 °F 10.4 °F 86% 29.97 in 0.8 mi North 13.8 mph 21.9 mph 0.00 in Snow Light Snow
6:17 AM 14.0 °F -0.8 °F 8.6 °F 79% 29.98 in 1.0 mi North 13.8 mph - 0.00 in Snow Light Snow
6:38 AM 12.2 °F -3.7 °F 8.6 °F 85% 29.99 in 0.8 mi North 15.0 mph 20.7 mph 0.00 in Snow Light Snow
6:50 AM 12.2 °F -2.5 °F 8.6 °F 85% 30.00 in 1.2 mi North 12.7 mph 21.9 mph 0.00 in Snow Light Snow
6:54 AM 12.9 °F -3.9 °F 8.1 °F 81% 30.07 in 1.2 mi North 17.3 mph 21.9 mph 0.00 in Snow Light Snow
7:05 AM 12.2 °F -5.3 °F 8.6 °F 85% 30.00 in 1.5 mi North 18.4 mph 26.5 mph 0.00 in Snow Light Snow
7:17 AM 12.2 °F -3.7 °F 6.8 °F 79% 30.01 in 2.0 mi NNE 15.0 mph 25.3 mph 0.00 in Snow Light Snow
7:27 AM 12.2 °F -3.1 °F 6.8 °F 79% 30.02 in 1.8 mi North 13.8 mph 20.7 mph 0.00 in Snow Light Snow
7:41 AM 12.2 °F -4.3 °F 6.8 °F 79% 30.02 in 1.8 mi North 16.1 mph 23.0 mph 0.00 in Snow Light Snow
7:46 AM 12.2 °F -4.3 °F 6.8 °F 79% 30.03 in 2.0 mi North 16.1 mph - 0.00 in Snow Light Snow
7:54 AM 12.0 °F -5.6 °F 6.1 °F 77% 30.09 in 2.0 mi North 18.4 mph 24.2 mph 0.00 in Snow Light Snow
8:09 AM 12.2 °F -5.3 °F 6.8 °F 79% 30.04 in 1.5 mi North 18.4 mph 24.2 mph 0.00 in Snow Light Snow
8:54 AM 10.9 °F -7.9 °F 3.9 °F 73% 30.13 in 1.2 mi North 20.7 mph 26.5 mph 0.00 in Snow Light Snow
9:03 AM 10.4 °F -8.2 °F 1.4 °F 67% 30.06 in 1.2 mi North 19.6 mph 31.1 mph 0.00 in Snow Light Snow
9:20 AM 10.4 °F -9.1 °F 1.4 °F 67% 30.07 in 0.5 mi North 21.9 mph 34.5 mph 0.00 in Snow Blowing Snow
9:30 AM 10.4 °F -8.2 °F 1.4 °F 67% 30.07 in 1.2 mi North 19.6 mph 33.4 mph 0.00 in Snow Blowing Snow
9:37 AM 10.4 °F -9.5 °F -0.4 °F 62% 30.07 in 3.0 mi NNE 23.0 mph 31.1 mph 0.00 in Snow Blowing Snow
9:54 AM 9.0 °F -11.4 °F -2.0 °F 61% 30.15 in 6.0 mi North 23.0 mph 28.8 mph 0.00 in Snow Blowing Snow
10:21 AM 8.6 °F -11.9 °F -0.4 °F 67% 30.09 in 1.8 mi North 23.0 mph 28.8 mph N/A Snow Blowing Snow
10:41 AM 10.4 °F -7.2 °F -0.4 °F 62% 30.09 in 3.0 mi North 17.3 mph 29.9 mph N/A Snow Blowing Snow
10:54 AM 10.9 °F -7.5 °F -2.0 °F 56% 30.17 in 4.0 mi North 19.6 mph 29.9 mph N/A Snow Blowing Snow
11:17 AM 10.4 °F -9.1 °F -0.4 °F 62% 30.10 in 2.0 mi North 21.9 mph 29.9 mph N/A Snow Blowing Snow
11:26 AM 10.4 °F -8.2 °F -0.4 °F 62% 30.10 in 6.0 mi North 19.6 mph 26.5 mph N/A Snow Blowing Snow
11:54 AM 10.9 °F -7.5 °F -2.0 °F 56% 30.17 in 8.0 mi NNE 19.6 mph 25.3 mph N/A   Partly Cloudy
12:54 PM 10.9 °F -6.5 °F -0.0 °F 61% 30.17 in 9.0 mi North 17.3 mph - N/A   Partly Cloudy
1:54 PM 12.0 °F -4.5 °F -0.9 °F 56% 30.18 in 9.0 mi NNW 16.1 mph 27.6 mph N/A   Mostly Cloudy
2:54 PM 10.9 °F -7.9 °F -0.9 °F 59% 30.20 in 10.0 mi NNW 20.7 mph 24.2 mph N/A   Scattered Clouds
3:54 PM 10.9 °F -5.4 °F -0.9 °F 59% 30.21 in 10.0 mi NNW 15.0 mph 25.3 mph N/A   Clear
4:54 PM 10.0 °F -3.7 °F -2.9 °F 56% 30.22 in 10.0 mi NNW 10.4 mph - N/A   Clear
5:54 PM 9.0 °F -6.6 °F -2.0 °F 61% 30.25 in 10.0 mi NNW 12.7 mph - N/A   Clear
6:26 PM 8.6 °F -9.5 °F -0.4 °F 67% 30.17 in 10.0 mi NW 17.3 mph - N/A   Mostly Cloudy
6:54 PM 8.1 °F -6.2 °F -0.9 °F 67% 30.26 in 10.0 mi NNW 10.4 mph - N/A   Scattered Clouds
7:54 PM 3.9 °F -6.9 °F -2.9 °F 73% 30.26 in 10.0 mi NW 5.8 mph - N/A   Clear
8:54 PM 3.0 °F -10.5 °F -2.0 °F 80% 30.26 in 10.0 mi NNW 8.1 mph - N/A   Clear
9:54 PM 1.9 °F -10.6 °F -2.9 °F 80% 30.27 in 10.0 mi NW 6.9 mph - N/A   Clear
10:54 PM 3.9 °F -9.4 °F -2.9 °F 73% 30.27 in 10.0 mi NW 8.1 mph - N/A   Mostly Cloudy
11:54 PM 6.1 °F -8.7 °F -2.9 °F 67% 30.29 in 10.0 mi NW 10.4 mph - N/A   Overcast